Regional Weather Roundup
Issued by NWS Raleigh/Durham, NC

Home | Current Version | Previous Version | Text Only | Print | Product List | Glossary On
Versions: 1 2 3 4 5 6 7 8 9 10 11 12 13 14 15 16 17 18 19 20 21 22 23 24 25 26 27 28 29 30 31 32 33 34 35 36 37 38 39 40 41 42 43 44 45 46 47 48 49 50
000
ASUS42 KRAH 242210
RWRRAH
NORTH CAROLINA WEATHER ROUNDUP
NATIONAL WEATHER SERVICE RALEIGH NC
600 PM EDT THU MAY 24 2018

NOTE: "FAIR" INDICATES FEW OR NO CLOUDS BELOW 12,000 FEET WITH NO
SIGNIFICANT WEATHER AND/OR OBSTRUCTIONS TO VISIBILITY.

NCZ001-053-055-056-065-067-242300-
WESTERN NORTH CAROLINA

CITY           SKY/WX    TMP DP  RH WIND       PRES   REMARKS
ASHEVILLE      FAIR      74  64  71 SE7       30.17R
JEFFERSON      CLOUDY    68  61  78 SE3       30.23S
MORGANTON      CLOUDY    77  65  67 CALM      30.18R
HICKORY        PTSUNNY   77  66  68 NE8       30.13S
RUTHERFORDTON  CLOUDY    78  68  72 NE7       30.14R
MOUNT AIRY     NOT AVBL
BOONE          FAIR      70  60  70 SE7       30.23S
$$

NCZ021-022-025-041-071-084-088-242300-
CENTRAL NORTH CAROLINA

CITY           SKY/WX    TMP DP  RH WIND       PRES   REMARKS
CHARLOTTE      PTSUNNY   82  69  64 NE9       30.10S
GREENSBORO     PTSUNNY   79  62  56 E9        30.12S
WINSTON-SALEM  FAIR      80  63  55 E6        30.14S
RALEIGH-DURHAM FAIR      83  61  47 NE12      30.12S
FORT BRAGG     PTSUNNY   79  68  69 SE8       30.10R
FAYETTEVILLE   PTSUNNY   79  68  69 SE12      30.10R
BURLINGTON     FAIR      83  61  47 NE9G16    30.11S
LAURINBURG     RAIN      72  70  93 E8        30.12R FOG
$$

NCZ011-015-027-028-043-044-047-080-103-242300-
NORTHEASTERN NORTH CAROLINA

CITY           SKY/WX    TMP DP  RH WIND       PRES   REMARKS
ROCKY MT-WILSO FAIR      83  56  39 E7        30.11F
GREENVILLE     FAIR      82  59  44 E8        30.13S
WASHINGTON     FAIR      83  58  43 E7        30.12F
ELIZABETH CITY FAIR      80  57  45 E7        30.14S
MANTEO         FAIR      74  62  64 E7        30.15S
CAPE HATTERAS  FAIR      77  59  53 E7        30.13F
$$

NCZ078-087-090-091-093-098-101-242300-
SOUTHEASTERN NORTH CAROLINA

CITY           SKY/WX    TMP DP  RH WIND       PRES   REMARKS
LUMBERTON      PTSUNNY   75  72  90 SE5       30.11R
GOLDSBORO      PTSUNNY   83  64  51 E9        30.09F
KINSTON        MOSUNNY   84  59  42 E8        30.12S
KENANSVILLE    FAIR      79  70  73 S6        30.11S
NEW BERN       FAIR      79  59  50 E8        30.13S
CHERRY POINT   MOSUNNY   82  63  52 E9        30.13S
BEAUFORT       FAIR      78  63  59 E7        30.12F
JACKSONVILLE   FAIR      80  64  58 SE13      30.11S
WILMINGTON     CLOUDY    76  66  71 SE12      30.12R
$$




USA.gov is the U.S. government's official web portal to all federal, state and local government web resources and services.